| time (UTC) | temp F | wind direction | speed MPH | gust MPH | rain 1hr in | rain 24hr in | rain mn in | humidity % | barometer mb |
| 20260506041122 | 62 | 129 | 1.0 | 5.0 | 0.00 | 0.00 | 0.00 | 72 | 1013.9 |
| 20260506040122 | 62 | 128 | 1.0 | 3.0 | 0.00 | 0.00 | 0.00 | 71 | 1013.7 |
| 20260506035122 | 62 | 133 | 1.0 | 3.0 | 0.00 | 0.00 | 0.00 | 70 | 1013.6 |
| 20260506034122 | 62 | 132 | 2.0 | 5.0 | 0.00 | 0.00 | 0.00 | 69 | 1013.5 |
| 20260506033123 | 63 | 142 | 1.0 | 5.0 | 0.00 | 0.00 | 0.00 | 69 | 1013.4 |
| 20260506032122 | 63 | 167 | 0.0 | 3.0 | 0.00 | 0.00 | 0.00 | 68 | 1013.2 |
| 20260506031124 | 63 | 164 | 1.0 | 8.0 | 0.00 | 0.00 | 0.00 | 68 | 1013.2 |
| 20260506030122 | 63 | 246 | 1.0 | 5.0 | 0.00 | 0.00 | 0.00 | 67 | 1013.1 |
| 20260506025124 | 64 | 232 | 0.0 | 5.0 | 0.00 | 0.00 | 0.00 | 66 | 1013.1 |
| 20260506024144 | 64 | 217 | 1.0 | 8.0 | 0.00 | 0.00 | 0.00 | 66 | 1013.0 |
| 20260506023122 | 65 | 232 | 1.0 | 6.0 | 0.00 | 0.00 | 0.00 | 64 | 1012.9 |
| 20260506022145 | 66 | 262 | 2.0 | 10.0 | 0.00 | 0.00 | 0.00 | 65 | 1013.1 |
| 20260506021122 | 65 | 252 | 1.0 | 6.0 | 0.00 | 0.00 | 0.00 | 65 | 1013.1 |
| 20260506020143 | 65 | 262 | 3.0 | 11.0 | 0.00 | 0.00 | 0.00 | 65 | 1013.1 |
| 20260506015123 | 65 | 234 | 2.0 | 8.0 | 0.00 | 0.00 | 0.00 | 65 | 1013.2 |
| 20260506014122 | 65 | 224 | 3.0 | 10.0 | 0.00 | 0.00 | 0.00 | 64 | 1013.2 |
| 20260506013122 | 65 | 236 | 3.0 | 14.0 | 0.00 | 0.00 | 0.00 | 64 | 1013.1 |
| 20260506012122 | 66 | 226 | 3.0 | 13.0 | 0.00 | 0.00 | 0.00 | 63 | 1013.3 |
| 20260506011122 | 66 | 234 | 3.0 | 14.0 | 0.00 | 0.00 | 0.00 | 65 | 1013.2 |
| 20260506010122 | 66 | 234 | 4.0 | 13.0 | 0.00 | 0.00 | 0.00 | 63 | 1013.4 |
| 20260506005122 | 66 | 231 | 5.0 | 16.0 | 0.00 | 0.00 | 0.00 | 64 | 1013.3 |
| 20260506004122 | 67 | 232 | 3.0 | 13.0 | 0.00 | 0.00 | 0.00 | 62 | 1013.2 |
| 20260506003122 | 67 | 224 | 3.0 | 16.0 | 0.00 | 0.00 | 0.00 | 63 | 1013.1 |
| 20260506002122 | 67 | 228 | 3.0 | 11.0 | 0.00 | 0.00 | 0.00 | 61 | 1013.3 |
| 20260506001122 | 68 | 219 | 4.0 | 14.0 | 0.00 | 0.00 | 0.00 | 60 | 1013.3 |
| 20260506000145 | 67 | 223 | 2.0 | 10.0 | 0.00 | 0.00 | 0.00 | 62 | 1013.3 |
| 20260505235123 | 68 | 231 | 5.0 | 14.0 | 0.00 | 0.00 | 0.00 | 61 | 1013.4 |
| 20260505234122 | 68 | 243 | 2.0 | 10.0 | 0.00 | 0.00 | 0.00 | 63 | 1013.4 |
| 20260505233145 | 68 | 228 | 3.0 | 10.0 | 0.00 | 0.00 | 0.00 | 62 | 1013.5 |
| 20260505232122 | 67 | 270 | 3.0 | 13.0 | 0.00 | 0.00 | 0.00 | 63 | 1013.7 |
| 20260505231143 | 67 | 238 | 3.0 | 13.0 | 0.00 | 0.00 | 0.00 | 63 | 1013.8 |
| 20260505230124 | 67 | 263 | 3.0 | 11.0 | 0.00 | 0.00 | 0.00 | 63 | 1014.0 |
| 20260505225145 | 67 | 231 | 3.0 | 13.0 | 0.00 | 0.00 | 0.00 | 62 | 1014.1 |
| 20260505224122 | 68 | 252 | 2.0 | 13.0 | 0.00 | 0.00 | 0.00 | 62 | 1014.0 |
| 20260505223122 | 67 | 255 | 3.0 | 19.0 | 0.00 | 0.00 | 0.00 | 61 | 1014.1 |
| 20260505222122 | 67 | 276 | 4.0 | 11.0 | 0.00 | 0.00 | 0.00 | 62 | 1014.2 |
| 20260505221124 | 67 | 242 | 3.0 | 13.0 | 0.00 | 0.00 | 0.00 | 62 | 1014.2 |
| 20260505220124 | 67 | 261 | 4.0 | 14.0 | 0.00 | 0.00 | 0.00 | 63 | 1014.3 |
| 20260505215122 | 67 | 256 | 3.0 | 14.0 | 0.00 | 0.00 | 0.00 | 63 | 1014.2 |
| 20260505214124 | 67 | 278 | 4.0 | 16.0 | 0.00 | 0.00 | 0.00 | 63 | 1014.3 |
| 20260505213124 | 67 | 254 | 3.0 | 11.0 | 0.00 | 0.00 | 0.00 | 63 | 1014.3 |
| 20260505212122 | 67 | 269 | 3.0 | 13.0 | 0.00 | 0.00 | 0.00 | 65 | 1014.4 |
| 20260505211122 | 66 | 297 | 5.0 | 19.0 | 0.00 | 0.00 | 0.00 | 64 | 1014.4 |
| 20260505210122 | 66 | 286 | 3.0 | 14.0 | 0.00 | 0.00 | 0.00 | 65 | 1014.5 |
| 20260505205124 | 66 | 285 | 3.0 | 14.0 | 0.00 | 0.00 | 0.00 | 64 | 1014.6 |
| 20260505204124 | 67 | 253 | 3.0 | 14.0 | 0.00 | 0.00 | 0.00 | 64 | 1014.7 |
| 20260505203124 | 66 | 237 | 3.0 | 11.0 | 0.00 | 0.00 | 0.00 | 64 | 1014.7 |
| 20260505202122 | 66 | 161 | 3.0 | 13.0 | 0.00 | 0.00 | 0.00 | 66 | 1014.7 |
| 20260505201144 | 66 | 233 | 4.0 | 18.0 | 0.00 | 0.00 | 0.00 | 66 | 1014.8 |
| 20260505200123 | 65 | 243 | 2.0 | 10.0 | 0.00 | 0.00 | 0.00 | 68 | 1014.8 |
| 20260505195124 | 64 | 231 | 4.0 | 19.0 | 0.00 | 0.00 | 0.00 | 68 | 1014.8 |
| 20260505194122 | 64 | 238 | 3.0 | 16.0 | 0.00 | 0.00 | 0.00 | 69 | 1014.9 |
| 20260505193143 | 64 | 225 | 4.0 | 16.0 | 0.00 | 0.00 | 0.00 | 69 | 1014.8 |
| 20260505192122 | 63 | 234 | 3.0 | 13.0 | 0.00 | 0.00 | 0.00 | 69 | 1015.0 |
| 20260505191122 | 62 | 268 | 3.0 | 14.0 | 0.00 | 0.00 | 0.00 | 70 | 1015.0 |
| 20260505190143 | 62 | 220 | 5.0 | 14.0 | 0.00 | 0.00 | 0.00 | 73 | 1014.9 |
| 20260505185124 | 61 | 224 | 6.0 | 19.0 | 0.00 | 0.00 | 0.00 | 74 | 1015.0 |
| 20260505184123 | 62 | 231 | 6.0 | 19.0 | 0.00 | 0.00 | 0.00 | 74 | 1015.1 |
| 20260505183143 | 62 | 243 | 4.0 | 14.0 | 0.00 | 0.00 | 0.00 | 73 | 1015.0 |
| 20260505182124 | 62 | 223 | 3.0 | 14.0 | 0.00 | 0.00 | 0.00 | 74 | 1014.9 |
| 20260505181122 | 62 | 240 | 4.0 | 16.0 | 0.00 | 0.00 | 0.00 | 74 | 1014.8 |
| 20260505180122 | 62 | 228 | 4.0 | 11.0 | 0.00 | 0.00 | 0.00 | 73 | 1014.7 |
| 20260505175122 | 62 | 268 | 3.0 | 11.0 | 0.00 | 0.00 | 0.00 | 75 | 1014.7 |
| 20260505174143 | 62 | 235 | 4.0 | 11.0 | 0.00 | 0.00 | 0.00 | 73 | 1014.8 |
| 20260505173122 | 62 | 271 | 2.0 | 10.0 | 0.00 | 0.00 | 0.00 | 73 | 1014.8 |
| 20260505172143 | 62 | 244 | 2.0 | 13.0 | 0.00 | 0.00 | 0.00 | 74 | 1014.8 |
| 20260505171122 | 61 | 247 | 1.0 | 6.0 | 0.00 | 0.00 | 0.00 | 76 | 1014.8 |
| 20260505170122 | 61 | 253 | 3.0 | 11.0 | 0.00 | 0.00 | 0.00 | 76 | 1014.9 |
| 20260505165122 | 60 | 215 | 3.0 | 13.0 | 0.00 | 0.00 | 0.00 | 77 | 1014.9 |
| 20260505164122 | 60 | 212 | 3.0 | 11.0 | 0.00 | 0.00 | 0.00 | 77 | 1014.9 |
| 20260505163124 | 60 | 211 | 2.0 | 10.0 | 0.00 | 0.00 | 0.00 | 77 | 1014.8 |
| 20260505162122 | 60 | 151 | 3.0 | 14.0 | 0.00 | 0.00 | 0.00 | 77 | 1014.8 |
| 20260505161122 | 60 | 152 | 4.0 | 13.0 | 0.00 | 0.00 | 0.00 | 77 | 1014.7 |
| 20260505160124 | 59 | 199 | 2.0 | 10.0 | 0.00 | 0.00 | 0.00 | 79 | 1014.7 |
| 20260505153124 | 59 | 160 | 3.0 | 13.0 | 0.00 | 0.00 | 0.00 | 77 | 1014.6 |
| 20260505152122 | 59 | 170 | 2.0 | 11.0 | 0.00 | 0.00 | 0.00 | 77 | 1014.6 |
| 20260505151124 | 58 | 149 | 3.0 | 13.0 | 0.00 | 0.00 | 0.00 | 78 | 1014.6 |
| 20260505150124 | 58 | 156 | 2.0 | 10.0 | 0.00 | 0.00 | 0.00 | 78 | 1014.5 |
| 20260505140122 | 57 | 133 | 1.0 | 5.0 | 0.00 | 0.00 | 0.00 | 80 | 1013.9 |
| 20260505130122 | 56 | 125 | 1.0 | 5.0 | 0.00 | 0.00 | 0.00 | 78 | 1013.1 |
| 20260505124122 | 56 | 130 | 0.0 | 3.0 | 0.00 | 0.00 | 0.00 | 78 | 1012.9 |
| 20260505123122 | 56 | 130 | 1.0 | 5.0 | 0.00 | 0.00 | 0.00 | 78 | 1012.8 |
| 20260505122143 | 56 | 146 | 1.0 | 5.0 | 0.00 | 0.00 | 0.00 | 78 | 1012.8 |
| 20260505121122 | 56 | 138 | 1.0 | 5.0 | 0.00 | 0.00 | 0.00 | 78 | 1012.7 |
| 20260505120122 | 56 | 125 | 3.0 | 6.0 | 0.00 | 0.00 | 0.00 | 79 | 1012.6 |
| 20260505115123 | 56 | 130 | 2.0 | 6.0 | 0.00 | 0.00 | 0.00 | 79 | 1012.5 |
| 20260505114124 | 56 | 126 | 2.0 | 6.0 | 0.00 | 0.00 | 0.00 | 79 | 1012.4 |
| 20260505113122 | 56 | 124 | 3.0 | 11.0 | 0.00 | 0.00 | 0.00 | 79 | 1012.3 |
| 20260505112122 | 56 | 123 | 4.0 | 11.0 | 0.00 | 0.00 | 0.00 | 79 | 1012.2 |
| 20260505111128 | 57 | 123 | 3.0 | 11.0 | 0.00 | 0.00 | 0.00 | 78 | 1012.1 |
| 20260505111124 | 57 | 122 | 3.0 | 11.0 | 0.00 | 0.00 | 0.00 | 78 | 1012.1 |
| 20260505110123 | 57 | 123 | 2.0 | 6.0 | 0.00 | 0.00 | 0.00 | 77 | 1012.0 |
| 20260505102123 | 58 | 110 | 2.0 | 10.0 | 0.00 | 0.00 | 0.00 | 74 | 1011.6 |
| 20260505101143 | 59 | 117 | 2.0 | 6.0 | 0.00 | 0.00 | 0.00 | 73 | 1011.4 |
| 20260505100122 | 59 | 116 | 2.0 | 8.0 | 0.00 | 0.00 | 0.00 | 72 | 1011.2 |
| 20260505095122 | 59 | 116 | 1.0 | 5.0 | 0.00 | 0.00 | 0.00 | 72 | 1011.0 |
| 20260505094123 | 59 | 136 | 1.0 | 10.0 | 0.00 | 0.00 | 0.00 | 71 | 1011.0 |
| 20260505093122 | 59 | 149 | 2.0 | 10.0 | 0.00 | 0.00 | 0.00 | 70 | 1010.8 |
| 20260505092122 | 60 | 149 | 2.0 | 8.0 | 0.00 | 0.00 | 0.00 | 71 | 1010.7 |
| 20260505091124 | 60 | 248 | 0.0 | 3.0 | 0.00 | 0.00 | 0.00 | 76 | 1010.6 |
| 20260505090122 | 60 | 0 | 0.0 | 0.0 | 0.00 | 0.00 | 0.00 | 79 | 1010.5 |
| 20260505085122 | 60 | 258 | 0.0 | 2.0 | 0.00 | 0.00 | 0.00 | 79 | 1010.4 |
| 20260505084143 | 61 | 0 | 0.0 | 0.0 | 0.00 | 0.00 | 0.00 | 78 | 1010.2 |
| 20260505083122 | 61 | 0 | 0.0 | 0.0 | 0.00 | 0.00 | 0.00 | 77 | 1010.2 |
| 20260505082125 | 61 | 0 | 0.0 | 0.0 | 0.00 | 0.00 | 0.00 | 75 | 1010.1 |
| 20260505081122 | 62 | 261 | 0.0 | 2.0 | 0.00 | 0.00 | 0.00 | 73 | 1010.0 |
| 20260505080124 | 62 | 261 | 0.0 | 2.0 | 0.00 | 0.00 | 0.00 | 72 | 1010.0 |
| 20260505075122 | 63 | 0 | 0.0 | 0.0 | 0.00 | 0.00 | 0.00 | 71 | 1009.9 |
| 20260505074122 | 63 | 0 | 0.0 | 0.0 | 0.00 | 0.00 | 0.00 | 69 | 1009.8 |
| 20260505073124 | 63 | 0 | 0.0 | 2.0 | 0.00 | 0.00 | 0.00 | 68 | 1009.5 |
| 20260505072122 | 64 | 120 | 0.0 | 2.0 | 0.00 | 0.00 | 0.00 | 67 | 1009.4 |
| 20260505071144 | 64 | 0 | 0.0 | 0.0 | 0.00 | 0.00 | 0.00 | 66 | 1009.3 |
| 20260505070122 | 64 | 136 | 0.0 | 3.0 | 0.00 | 0.00 | 0.00 | 66 | 1009.1 |
| 20260505065122 | 64 | 115 | 0.0 | 2.0 | 0.00 | 0.00 | 0.00 | 65 | 1009.0 |
| 20260505064124 | 65 | 0 | 0.0 | 0.0 | 0.00 | 0.00 | 0.00 | 66 | 1009.0 |
| 20260505063143 | 65 | 125 | 1.0 | 6.0 | 0.00 | 0.00 | 0.00 | 66 | 1008.8 |
| 20260505062122 | 65 | 110 | 0.0 | 3.0 | 0.00 | 0.00 | 0.00 | 65 | 1008.8 |
| 20260505061122 | 66 | 130 | 0.0 | 3.0 | 0.00 | 0.00 | 0.00 | 63 | 1008.7 |
| 20260505060124 | 66 | 0 | 0.0 | 0.0 | 0.00 | 0.00 | 0.00 | 62 | 1008.7 |
| 20260505055124 | 67 | 125 | 2.0 | 5.0 | 0.00 | 0.00 | 0.00 | 61 | 1008.6 |
| 20260505054122 | 67 | 124 | 2.0 | 6.0 | 0.00 | 0.00 | 0.00 | 60 | 1008.6 |
| 20260505053124 | 67 | 124 | 2.0 | 5.0 | 0.00 | 0.00 | 0.00 | 59 | 1008.6 |
| 20260505052143 | 67 | 123 | 0.0 | 6.0 | 0.00 | 0.00 | 0.00 | 59 | 1008.5 |
| 20260505051122 | 67 | 134 | 2.0 | 6.0 | 0.00 | 0.00 | 0.00 | 59 | 1008.5 |
| 20260505050124 | 67 | 117 | 2.0 | 5.0 | 0.00 | 0.00 | 0.00 | 60 | 1008.4 |